Flag for China Weather past 2 weeks in Zhengzhou, Henan, China

Now
81 °F

Clear.


Feels Like: 84 °F
Forecast: 76 / 94 °F
Wind: 8 mph from East

Location: Zhengzhou Airport

Current Time: Jul 30, 2014 at 9:54:18 PM

Latest Report: Jul 30, 2014 at 9:00 PM


Visibility: 10 mi

Pressure: 29.71 "Hg

Humidity: 70%

Dew point: 70 °F

Location of ZhengzhouLocation

Historic Weather in Zhengzhou — Graph

°F

Zhengzhou temperature yesterday

Maximum temperature yesterday: 93 °F (at 2:00 PM)
Minimum temperature yesterday: 75 °F (at 6:00 AM)
Average temperature yesterday: 82 °F

Past Weeks' High & Low Weather Summary

 TemperatureHumidityPressure
High100 °F (Jul 21, 3:00 PM)94% (Jul 16, 5:00 AM)29.89 "Hg (Jul 16, 5:00 AM)
Low68 °F (Jul 26, 3:00 AM)28% (Jul 26, 5:00 PM)29.53 "Hg (Jul 21, 4:00 PM)
Average83 °F64%29.70 "Hg
* Reported Jul 15 8:00 PM — Jul 30 8:00 PM, Zhengzhou, Weather by CustomWeather, © 2014

Note: Actual official high and low records may vary slightly from our data, if they occured in-between our weather recording intervals... More about our weather records

Advertising

Zhengzhou weather history for previous 24 hours

 ConditionsComfort  
Time TempWeatherWind HumidityBarometerVisibility
8:00 PM
Jul 30
81 °FClear.8 mph70%29.68 "Hg10 mi
7:00 PM82 °FSunny.10 mph66%29.65 "Hg10 mi
6:00 PM84 °FSunny.10 mph62%29.62 "Hg10 mi
5:00 PM86 °FSunny.10 mph59%29.62 "Hg10 mi
4:00 PM86 °FSunny.10 mph62%29.62 "Hg10 mi
3:00 PM84 °FPassing clouds.8 mph66%29.65 "HgN/A
2:00 PM81 °FClear.8 mph70%29.65 "Hg5 mi
1:00 PM81 °FClear.13 mph70%29.68 "Hg5 mi
12:00 PM79 °FScattered clouds.10 mph74%29.68 "HgN/A
11:00 AM81 °FScattered clouds.3 mph70%29.68 "HgN/A
10:00 AM79 °FScattered clouds.1 mph70%29.65 "HgN/A
9:00 AM77 °FScattered clouds.1 mph74%29.65 "HgN/A
8:00 AM75 °FScattered clouds.No wind78%29.65 "HgN/A
7:00 AM73 °FClear.1 mph78%29.65 "Hg5 mi
6:00 AM73 °FClear.6 mph83%29.62 "Hg5 mi
5:00 AM75 °FFog.10 mph89%29.62 "Hg2 mi
4:00 AM75 °FFog.10 mph94%29.62 "Hg2 mi
3:00 AM75 °FFog.10 mph89%29.62 "Hg2 mi
2:00 AM75 °FFog.3 mph89%29.59 "Hg2 mi
1:00 AM75 °FFog.3 mph89%29.59 "Hg2 mi
12:00 AM75 °FFog.3 mph89%29.59 "Hg3 mi
11:00 PM
Jul 29
77 °FClear.3 mph83%29.62 "Hg4 mi
10:00 PM75 °FClear.3 mph89%29.59 "Hg4 mi
9:00 PM75 °FFog.6 mph89%29.62 "Hg3 mi
Weather by CustomWeather, © 2014

See weather overviewHow to use our weather pages